Location: Poughquag
(41.6090°N, 73.6820°W)
Time: 12:49:13
(UTC-04:00)

Vanguard 2 Rocket - Pass Details

Date: 07 June 2020
Orbit: 556 x 3324 km, 32.9° (Epoch: 06 July)

Event Time Altitude Azimuth Distance (km) Brightness Sun altitude
Rises 17:34:29 0° 266° (W) 3,868 11.3 29.5°
Reaches altitude 10° 17:36:53 10° 259° (WSW) 3,184 11.1 29.0°
Maximum altitude 17:44:28 40° 192° (SSW) 2,383 9.4 27.6°
Drops below altitude 10° 17:57:07 10° 130° (SE) 5,264 10.4 25.3°
Sets 18:02:26 0° 125° (SE) 6,667 10.8 24.3°
